RH
71 70 68 68 68 63 58 58 57 52 51 58 53 61 60 61 61 63 63 56 54 53 53 56 59 60 60 59 60 60 59 58 56 60 57 57 57 59
68 62 61 60 62 63 64 60 62 65 56 56 58 60 61 50 55 63 61 55 52 50 54 54 56 58 58 59 60 60 59 58 58 58 60 59 56 59
56 55 55 56 64 67 70 67 70 73 74 70 67 67 63 65 62 63 62 55 57 52 52 54 53 55 58 58 58 59 60 59 60 61 62 61 57 61
60 59 58 48 64 63 66 64 67 70 76 83 78 74 68 66 64 66 53 43 59 50 54 52 53 58 57 57 57 57 58 58 60 61 61 59 61 65
53 55 57 58 63 65 66 72 75 65 79 82 82 76 72 67 68 67 61 68 52 55 54 52 58 57 57 57 55 54 54 60 61 60 60 60 60 60
58 61 64 66 66 67 63 70 70 78 79 83 82 78 75 70 72 74 76 73 72 55 59 58 61 58 58 57 56 54 58 59 61 61 60 60 60 59
63 64 71 68 67 71 74 82 80 81 83 83 83 81 78 78 79 80 80 81 74 78 76 66 66 70 67 60 58 60 59 58 60 60 65 65 66 65
66 69 70 67 67 64 63 64 68 80 83 86 85 86 83 82 80 88 92 88 92 81 76 74 74 76 70 63 61 64 57 58 59 60 64 66 68 68
69 68 53 56 69 72 65 65 66 62 58 74 88 88 90 83 90 91 94 95 93 80 77 80 79 74 66 56 65 64 61 62 61 64 69 69 70 69
70 64 64 69 75 70 70 70 65 63 64 63 81 83 79 79 82 78 82 82 80 75 77 98 88 72 70 66 65 60 60 61 66 65 68 70 70 68
66 70 65 70 64 63 72 74 70 71 56 58 60 58 58 61 64 78 88 90 85 80 79 91 85 85 71 74 74 63 63 65 67 66 68 72 65 73
68 71 64 69 64 64 76 82 84 83 82 74 71 71 69 72 69 80 82 96 94 91 92 91 89 90 94 87 73 73 71 70 69 71 72 68 65 66
68 72 75 65 64 65 65 81 80 78 78 82 83 85 84 83 88 79 74 85 96 94 74 86 94 94 97 89 81 71 80 64 69 77 82 70 65 72
72 75 76 64 64 64 73 68 68 68 83 87 86 86 89 90 71 69 67 69 74 80 75 78 98 98 95 92 86 70 71 77 83 97 82 74 73 79
81 70 62 58 59 66 63 64 64 84 93 82 73 74 78 87 85 75 80 77 78 80 66 82 89 93 96 95 93 86 85 85 91 83 83 81 86 88
71 74 65 63 61 67 67 71 75 81 80 79 76 74 72 78 81 82 87 85 89 87 80 83 81 85 94 89 92 90 87 97 89 82 83 83 84 82
76 78 80 84 90 87 80 80 83 70 78 80 84 85 77 82 81 83 93 92 96 92 89 84 89 88 90 92 95 88 95 90 89 88 86 88 82 84
85 93 92 93 93 93 92 86 75 71 80 88 87 91 93 94 94 93 90 94 96 92 93 93 89 91 89 83 67 93 98 94 92 89 87 94 87 83
94 91 92 95 96 89 75 76 81 81 88 92 96 96 96 96 93 94 93 95 93 93 95 91 95 96 94 94 88 63 91 91 95 89 89 92 93 88
86 91 95 95 93 78 82 87 90 92 94 95 96 96 96 97 96 95 94 96 96 96 91 90 95 96 97 96 96 86 77 89 94 95 96 90 78 70
88 94 96 95 88 83 88 93 94 95 94 98 97 97 97 97 96 95 95 85 83 94 95 94 91 74 94 96 96 87 90 72 77 88 96 100 98 94
91 95 94 90 86 91 93 96 97 94 96 96 96 97 96 97 96 96 96 97 96 94 95 93 89 94 98 95 95 90 91 92 79 68 70 81 98 97
95 93 85 91 94 95 96 97 96 95 96 96 96 96 97 96 96 96 96 97 97 95 94 91 91 91 88 98 87 93 97 96 94 93 92 66 64 68
Wind_Speed
8 7 6 4 4 4 5 3 3 2 1 2 2 1 3 4 5 4 5 12 16 16 16 17 18 19 18 19 21 20 22 22 23 21 22 24 24 25
6 7 6 5 4 5 5 3 4 2 2 2 1 2 3 2 4 4 5 12 14 16 17 16 18 17 18 21 21 21 21 21 22 22 23 25 26 27
6 7 8 6 5 4 4 4 3 2 2 3 2 3 4 4 4 4 5 5 4 15 16 18 15 17 20 19 20 20 20 20 20 22 24 25 25 26
7 6 7 5 5 4 4 3 2 4 3 2 3 4 3 2 3 4 3 5 5 12 18 16 17 20 19 19 18 18 18 19 21 23 23 23 24 23
5 7 6 5 5 3 3 3 3 3 2 1 3 2 2 3 3 3 4 6 6 15 16 14 20 19 20 18 18 17 17 19 20 21 22 24 24 24
8 7 6 6 5 4 4 4 3 3 2 2 2 3 2 2 1 4 5 3 7 8 8 14 18 18 20 19 19 19 19 18 20 22 23 23 24 25
8 8 7 7 9 7 4 5 4 3 3 3 3 2 3 3 3 3 4 6 7 2 4 9 7 4 8 13 13 21 20 19 20 22 22 23 23 24
7 7 5 6 6 6 5 3 1 1 1 1 2 2 3 3 3 4 4 6 6 3 10 9 4 5 6 7 22 21 19 20 22 22 23 23 24 23
6 5 5 4 3 1 4 4 4 5 5 3 3 2 3 3 3 6 4 5 5 8 8 8 3 6 7 10 21 20 22 23 22 22 24 21 21 22
6 6 5 4 2 4 4 3 1 3 3 0 1 4 4 4 3 4 6 6 6 6 4 4 3 8 9 9 19 16 27 24 23 24 23 22 24 24
5 5 4 5 4 5 3 3 2 4 4 6 10 10 8 9 7 2 4 6 8 7 2 3 5 9 8 6 5 20 23 26 24 26 22 23 24 24
4 5 6 5 5 5 3 4 4 3 4 4 4 6 6 7 12 6 5 6 7 5 3 8 6 7 6 3 8 7 8 16 27 24 22 24 25 10
4 3 3 5 4 5 5 2 3 4 5 3 4 4 4 5 3 4 5 5 5 5 10 8 5 5 3 11 5 8 5 12 9 11 16 20 24 20
4 3 4 5 5 4 5 6 5 5 3 3 3 2 2 3 6 6 7 7 5 8 10 9 6 6 8 9 11 8 10 9 6 5 7 14 20 21
4 5 6 3 3 3 3 4 6 4 2 3 5 4 5 5 6 6 5 6 6 7 7 6 6 7 6 9 10 10 13 6 5 8 7 8 8 9
6 4 2 2 1 0 3 4 2 1 2 3 5 5 6 6 5 6 7 7 7 5 6 7 8 6 7 8 8 11 9 5 7 8 8 8 8 7
4 1 1 2 2 2 3 4 3 3 3 3 4 4 6 5 6 6 5 6 5 7 8 7 5 7 7 10 7 7 6 6 6 8 10 9 8 7
2 2 2 2 2 2 2 3 3 5 3 3 4 4 4 5 6 5 6 5 6 7 7 6 8 9 5 4 4 3 3 6 7 7 8 8 7 8
2 2 2 2 1 2 3 3 3 3 3 3 3 4 4 4 8 6 6 5 6 6 6 6 6 6 9 8 4 5 7 8 6 7 6 6 8 9
2 1 1 1 0 3 3 2 2 2 3 3 3 3 4 4 5 6 6 6 6 5 7 6 5 6 4 6 6 10 14 8 5 6 4 4 7 12
2 1 2 3 1 2 1 1 2 3 4 3 3 3 4 5 5 5 7 12 12 6 7 7 7 16 4 4 5 6 5 15 12 8 4 2 4 4
2 2 2 1 1 0 1 1 2 3 3 3 3 3 4 5 5 7 6 6 5 6 7 6 7 5 2 4 7 9 7 5 10 14 14 7 1 4
3 2 1 0 0 1 2 2 2 3 3 3 4 4 4 5 5 6 7 5 5 6 6 6 6 4 5 2 11 7 6 4 4 5 4 14 12 11
Wind_Direction
87 88 88 69 58 69 82 77 126 142 22 354 91 67 48 36 341 4 332 321 329 328 330 329 332 325 327 327 326 325 324 324 323 325 317 318 316 318
101 107 91 75 62 61 70 69 65 115 151 96 348 15 32 22 327 351 320 326 321 330 327 328 327 329 332 328 325 325 325 322 319 321 324 323 322 324
92 98 93 94 78 81 78 61 65 76 80 323 0 320 359 0 332 325 307 298 308 326 324 328 331 333 332 331 328 326 324 320 322 320 325 323 319 323
89 97 91 96 89 79 79 92 79 67 98 292 294 335 339 298 278 317 322 340 325 323 331 333 337 335 335 334 328 326 326 325 326 326 320 319 322 322
105 93 97 104 91 86 86 72 58 34 37 300 315 334 304 314 319 336 332 330 323 325 325 342 334 335 335 326 327 327 331 335 334 329 328 327 326 321
99 86 76 74 77 77 88 89 77 21 354 4 314 303 267 290 1 324 335 319 317 319 330 348 333 331 326 320 325 332 330 335 333 331 331 329 326 321
105 95 86 85 81 66 67 41 49 26 4 352 328 307 318 328 336 332 319 313 330 311 337 329 319 313 301 317 313 331 330 333 328 329 330 326 323 321
102 95 100 93 94 84 71 57 116 131 309 324 282 295 295 323 328 329 322 348 341 336 332 315 293 295 305 311 333 331 331 331 328 330 326 324 324 323
111 125 119 100 94 30 230 226 248 226 250 182 267 319 339 308 334 348 333 314 305 314 315 300 280 324 322 324 329 330 349 330 330 332 330 332 327 325
101 94 104 127 96 46 357 344 17 316 129 353 324 276 261 307 348 316 319 318 312 295 293 268 309 326 326 319 324 337 342 335 326 332 333 332 335 327
95 86 76 92 61 32 10 337 19 13 27 352 339 335 330 322 302 298 315 326 320 316 327 325 317 317 312 299 319 339 329 331 333 329 329 332 334 332
130 93 92 80 46 27 33 358 26 8 354 355 344 337 344 6 16 12 357 326 325 322 301 333 326 343 317 289 328 313 318 325 327 326 328 337 332 326
134 138 119 66 38 22 11 21 1 6 331 0 349 348 17 358 341 354 333 321 308 293 312 325 316 304 267 307 305 318 315 317 310 318 320 330 332 330
132 103 100 59 33 20 33 4 349 3 30 9 11 336 319 333 344 337 333 330 310 303 310 309 299 314 304 307 308 321 314 304 306 308 322 321 327 327
101 88 68 43 8 26 21 7 23 35 16 9 341 345 346 322 310 326 322 311 315 296 297 293 298 312 308 306 303 314 315 310 318 333 325 324 316 316
106 102 129 184 201 51 37 29 37 53 359 4 345 335 328 332 334 339 327 326 321 313 296 293 300 305 299 291 296 302 302 309 325 331 317 317 316 315
119 131 126 76 48 31 30 20 8 355 358 356 340 325 327 330 328 316 307 318 311 315 317 318 293 292 281 278 296 295 322 326 322 320 328 324 321 315
86 93 54 58 47 40 19 350 343 341 354 355 319 317 321 319 315 325 315 309 312 310 310 315 324 326 322 278 266 299 313 315 312 321 325 326 319 323
57 63 75 69 42 353 319 321 325 335 343 323 315 310 314 315 322 309 312 310 309 303 304 317 316 323 322 323 291 344 329 316 312 327 321 320 313 311
88 95 117 120 277 294 301 326 331 325 319 302 299 307 304 300 304 305 307 303 307 316 315 314 312 313 326 324 307 306 322 320 321 310 302 305 298 314
146 166 189 194 237 272 272 277 307 301 295 300 301 304 311 305 299 299 300 318 332 311 311 319 314 321 295 309 329 318 299 321 323 322 303 297 308 319
185 178 214 244 222 251 272 257 281 300 294 296 296 299 296 293 296 298 293 298 302 305 299 301 306 304 343 306 312 315 311 313 322 335 349 345 199 313
187 186 320 213 209 237 213 230 264 285 287 288 289 290 290 294 284 291 295 289 301 307 310 313 313 313 313 286 325 312 304 295 319 330 316 349 3 350